This is the latest recevied weather packets stored in our database for station/object OK2PYA-5. If no packets are shown the sender has not sent any weather packets the latest 10 day(s).
| Time | Temp. | Humidity | Pressure | Rain* | Wind** | Luminosity | Snow |
|---|---|---|---|---|---|---|---|
| 1777508419 | 0.56° C | 68% | 1027.6 hPa | - | - | - | - |
| 1777506493 | 1.11° C | 65% | 1027.4 hPa | - | - | - | - |
| 1777504566 | 1.67° C | 62% | 1027.3 hPa | - | - | - | - |
| 1777502639 | 1.67° C | 61% | 1027.2 hPa | - | - | - | - |
| 1777500307 | 2.78° C | 58% | 1027 hPa | - | - | - | - |
| 1777498381 | 3.89° C | 56% | 1026.8 hPa | - | - | - | - |
| 1777496454 | 3.89° C | 55% | 1026.6 hPa | - | - | - | - |
| 1777494527 | 3.89° C | 54% | 1026.3 hPa | - | - | - | - |
| 1777492600 | 3.89° C | 52% | 1026 hPa | - | - | - | - |
| 1777490673 | 4.44° C | 49% | 1025.7 hPa | - | - | - | - |
| 1777488746 | 5° C | 46% | 1025.4 hPa | - | - | - | - |
| 1777486819 | 5.56° C | 43% | 1024.8 hPa | - | - | - | - |
| 1777484892 | 6.67° C | 41% | 1024.3 hPa | - | - | - | - |
| 1777482965 | 7.22° C | 39% | 1023.7 hPa | - | - | - | - |
| 1777481039 | 7.78° C | 38% | 1023.3 hPa | - | - | - | - |
| 1777478705 | 8.89° C | 41% | 1023 hPa | - | - | - | - |
| 1777476779 | 8.89° C | 43% | 1022.7 hPa | - | - | - | - |
| 1777474852 | 9.44° C | 45% | 1022.6 hPa | - | - | - | - |
| 1777472925 | 10° C | 47% | 1022.5 hPa | - | - | - | - |
| 1777470998 | 10° C | 49% | 1022.3 hPa | - | - | - | - |
| 1777469072 | 10° C | 50% | 1022 hPa | - | - | - | - |
| 1777467145 | 10° C | 47% | 1022 hPa | - | - | - | - |
| 1777465218 | 10° C | 44% | 1022.1 hPa | - | - | - | - |
| 1777463291 | 10° C | 44% | 1022.1 hPa | - | - | - | - |
| 1777461365 | 10° C | 45% | 1022.2 hPa | - | - | - | - |
* Rain since midnight (hover to see other rain measurements)
** Current wind speed in m/s (hover to see current wind gust speed)